Temp
31 32 33 34 33 33 32 32 33 34 31 32 31 30 30 30 30 29 30 30 29 29 30 28 28 28 27 26 25 24 24 24 23 23 23 23 24 23 23 23 25 25 24 24
32 33 33 33 32 32 32 32 34 33 31 31 30 30 31 30 30 30 30 30 30 31 30 30 28 28 28 26 26 24 25 25 25 23 23 24 24 24 24 24 25 24 25 24
33 34 32 33 33 33 34 33 33 32 30 30 31 32 29 30 30 30 31 31 31 31 31 31 30 29 28 27 26 25 26 26 26 25 23 23 23 24 24 24 24 24 24 23
32 33 32 33 33 34 34 32 31 31 32 32 29 32 30 29 29 29 30 31 31 31 31 32 31 29 29 28 27 26 25 26 25 25 24 24 25 25 25 25 24 23 23 23
33 31 32 34 34 33 33 30 30 30 31 31 30 31 33 28 29 30 30 31 31 31 32 32 32 30 30 28 27 26 26 25 25 25 25 24 24 25 24 24 24 23 23 23
32 31 32 34 33 33 31 32 31 30 32 33 29 31 35 32 32 32 32 31 31 30 31 32 31 30 29 29 27 27 25 26 25 26 26 25 24 24 24 23 24 22 22 21
32 33 33 32 33 31 32 34 33 33 32 32 27 29 34 33 33 34 33 32 32 31 31 31 31 31 29 28 27 27 25 25 25 25 26 25 25 24 24 24 23 22 22 22
31 32 32 33 34 34 33 35 34 32 32 33 27 32 36 33 32 32 32 32 32 31 32 32 31 30 29 28 28 27 26 25 24 25 26 26 25 24 24 24 24 23 23 22
30 31 31 31 33 35 32 33 33 33 28 31 33 33 35 32 32 33 32 31 31 31 31 30 31 30 29 29 28 28 27 26 26 25 25 25 25 25 25 25 24 22 22 21
32 31 31 32 33 31 34 32 33 31 32 32 33 32 35 35 34 32 32 33 33 32 31 31 31 31 30 30 30 28 28 27 28 26 24 25 25 25 25 25 24 22 21 21
31 32 33 32 33 34 32 33 30 32 32 34 33 35 35 34 33 33 34 34 34 33 32 32 31 30 30 29 30 29 27 27 26 26 24 25 24 23 24 25 23 22 21 21
31 32 32 33 33 31 33 34 34 34 31 30 32 35 35 32 32 31 33 34 34 33 32 32 32 30 29 29 28 27 27 26 26 27 25 24 23 23 23 22 22 22 21 21
29 31 32 33 32 30 32 31 31 31 31 31 34 36 34 31 31 30 30 31 31 31 31 31 32 31 29 28 27 26 26 26 25 25 24 24 23 23 23 22 22 21 21 20
29 29 32 33 33 32 32 32 31 33 34 32 34 35 36 33 29 28 29 30 31 30 30 30 30 28 27 27 26 25 26 25 25 25 25 24 23 23 23 22 21 21 20 20
30 31 28 29 30 31 31 31 31 32 32 34 33 32 34 29 28 27 28 29 31 31 31 31 30 28 27 26 25 25 25 25 25 24 24 24 23 22 22 21 20 20 20 20
28 29 29 30 29 30 30 29 30 29 28 29 29 31 29 28 28 28 29 29 31 32 31 32 30 29 28 27 26 25 25 24 24 24 24 23 22 21 20 20 20 20 19 19
29 30 30 30 28 29 31 30 30 28 28 29 32 32 28 28 28 28 28 29 29 31 33 33 32 30 29 27 27 26 25 24 23 23 23 22 21 20 19 19 19 19 18 18
28 28 27 30 28 29 29 27 28 28 29 28 28 28 28 28 28 28 29 28 28 29 29 30 32 30 28 27 27 26 25 23 23 23 21 20 20 19 19 19 19 18 19 19
25 28 28 29 29 28 28 28 28 28 31 29 29 29 28 28 28 31 30 29 28 28 29 29 30 30 27 26 25 24 24 23 23 21 20 20 19 19 21 22 20 18 19 19
26 26 29 26 30 29 31 29 28 28 30 30 29 29 28 28 31 31 30 28 29 30 28 29 29 27 26 25 24 24 24 23 22 20 20 19 21 20 22 21 20 18 19 19
27 26 28 27 28 30 28 26 27 29 29 28 28 28 28 29 29 28 28 28 28 29 27 27 27 27 26 25 24 24 22 22 20 20 19 17 19 19 19 18 17 18 18 18
27 27 27 25 26 28 26 26 27 26 26 26 26 26 25 25 25 26 26 27 28 28 28 27 26 25 24 24 23 22 21 19 20 19 22 20 19 18 18 17 16 18 17 17
24 25 27 26 27 24 25 25 27 26 25 26 26 27 26 26 26 26 26 27 27 27 26 26 25 22 21 22 21 20 19 19 21 23 20 21 19 19 17 17 17 17 17 17
22 20 24 24 25 25 25 26 26 26 26 26 26 26 26 26 27 28 28 27 27 25 25 23 22 20 20 20 20 20 19 20 21 22 20 18 18 17 17 17 18 17 17 16
21 20 23 24 25 26 24 25 26 26 27 27 26 26 26 27 27 28 28 27 26 24 22 22 21 20 19 19 19 20 20 19 18 20 18 17 17 17 16 16 17 17 17 17
20 23 25 26 26 26 26 26 25 25 26 26 26 25 26 26 27 28 28 26 26 25 22 20 20 20 19 19 19 20 19 19 19 17 17 16 16 16 16 17 16 16 17 18
Height
764 773 777 768 768 771 776 778 776 761 760 763 769 770 765 763 764 767 766 769 772 772 772 778 781 785 789 792 795 797 801 804 809 812 815 817 817 819 820 820 821 821 821 821
770 773 763 763 767 771 774 777 770 761 762 765 769 768 756 757 756 754 760 764 765 767 771 773 777 782 785 787 789 794 796 800 803 809 811 813 814 816 817 819 819 819 819 817
769 760 758 762 769 771 766 774 770 775 768 767 767 761 764 755 752 753 754 755 758 760 764 767 772 776 779 782 785 787 790 794 799 803 808 810 813 815 816 817 816 816 816 816
765 755 762 765 769 765 775 765 768 773 774 785 775 785 765 759 757 755 751 752 752 755 758 762 766 771 774 775 779 782 786 790 794 799 803 805 808 811 814 816 815 815 814 815
764 763 763 766 765 760 771 766 769 772 777 780 784 787 757 762 758 750 746 744 746 747 750 754 759 763 766 770 773 776 780 785 790 794 798 802 805 808 811 812 812 812 813 814
759 754 754 753 756 756 759 766 769 773 772 786 793 788 755 756 744 737 736 737 738 741 743 746 751 756 760 765 768 772 775 777 783 789 793 796 800 804 807 809 810 811 813 814
763 758 751 751 763 761 762 767 789 792 793 795 794 795 757 738 731 727 729 730 731 734 738 739 743 749 754 759 763 767 770 773 778 783 788 791 795 799 802 806 807 809 812 813
776 778 755 744 750 757 762 761 780 808 800 786 795 779 742 729 724 722 723 724 725 728 728 732 737 744 749 752 757 762 765 768 772 777 781 785 791 795 799 802 803 806 808 811
777 774 747 746 742 743 768 773 758 776 796 793 771 753 729 727 725 721 721 722 722 723 726 730 734 738 742 746 750 754 758 762 766 771 776 780 785 789 793 797 799 802 805 808
755 773 752 745 742 750 748 751 772 776 797 798 773 772 752 729 725 723 722 718 716 717 721 724 728 732 735 739 744 749 753 757 760 766 771 775 778 783 788 791 795 799 803 806
750 757 757 749 750 751 760 761 769 764 773 779 783 760 724 729 724 721 714 713 712 713 715 718 723 726 731 735 739 742 747 751 755 759 765 770 773 779 783 787 792 797 801 804
745 750 761 752 740 744 743 748 747 762 781 778 773 755 716 723 727 726 719 713 709 710 712 713 716 722 726 730 733 736 740 744 748 753 759 765 771 775 778 784 790 795 798 801
747 756 766 756 750 749 748 749 752 753 758 774 768 751 718 725 727 727 725 720 718 717 715 713 713 715 719 722 726 729 733 738 744 748 755 761 766 771 775 780 787 793 798 804
739 753 751 757 749 742 751 748 749 743 755 764 754 741 721 722 731 732 727 721 715 714 715 716 714 713 714 717 720 725 729 734 739 745 752 756 758 763 770 778 783 788 795 801
739 752 758 753 749 744 745 746 750 750 747 750 749 750 729 737 736 730 722 718 713 711 710 710 713 714 712 714 717 721 727 730 734 740 746 749 755 762 769 777 784 790 791 796
740 754 753 755 751 747 748 749 747 752 755 754 752 746 736 734 730 726 718 712 707 706 706 705 706 708 711 710 712 717 722 726 730 735 740 748 754 761 767 775 784 792 792 794
743 745 752 762 761 755 758 747 746 751 750 746 749 735 734 733 731 727 722 714 709 701 695 697 697 700 704 709 714 713 718 725 730 736 742 749 754 760 768 777 783 789 788 792
747 753 757 760 764 783 750 744 744 746 742 741 739 736 735 733 728 723 718 716 709 702 696 693 692 694 696 702 708 714 717 721 725 732 740 746 750 756 764 771 781 788 784 787
750 749 761 762 766 763 752 745 748 749 736 730 730 729 729 727 726 719 715 713 709 702 695 690 691 692 696 698 703 708 713 719 726 732 736 740 743 747 749 746 766 781 788 791
748 752 753 766 759 768 734 733 733 737 746 720 726 729 730 728 730 726 716 714 708 701 696 690 688 691 694 697 703 706 710 717 724 728 730 733 732 738 748 749 755 771 783 790
755 757 756 762 759 744 735 737 735 755 750 731 730 731 729 731 729 724 723 719 713 705 700 695 692 694 698 702 706 712 718 724 728 735 747 742 743 756 757 761 766 771 781 787
755 757 757 767 766 764 738 742 748 745 737 738 736 735 734 734 730 727 726 721 714 710 702 700 697 699 702 705 709 713 718 723 723 729 723 717 750 751 763 764 767 773 781 786
768 755 753 757 753 746 741 739 734 736 737 737 735 731 730 731 727 725 722 716 713 711 708 703 704 706 707 707 711 715 717 718 720 721 717 722 731 743 764 763 766 775 780 784
759 760 757 757 748 744 739 736 732 732 732 731 730 728 727 729 724 720 718 715 713 712 708 708 708 707 714 713 713 716 713 716 718 721 726 733 733 744 754 755 764 772 776 783
761 763 758 752 742 737 738 737 733 729 726 725 725 725 723 722 720 718 717 715 714 713 714 709 709 707 715 721 718 718 718 721 722 723 725 731 736 743 748 758 762 769 776 781
757 752 753 746 738 739 733 731 731 729 725 722 721 720 718 717 715 714 713 714 713 711 710 711 712 708 717 721 719 721 722 722 725 725 727 730 735 745 749 756 765 773 775 780
Wind_Speed
5 6 10 5 2 2 5 8 12 10 2 3 3 5 12 14 16 16 16 16 17 18 21 22 22 22 20 20 20 22 22 24 20 17 13 14 16 14 14 15 16 17 17 18
6 14 7 4 5 3 4 9 12 4 2 3 3 10 12 18 21 21 20 18 18 18 17 20 21 21 23 24 25 22 26 26 27 20 16 12 9 10 13 12 14 13 14 13
14 6 5 3 3 5 6 7 10 9 1 3 8 7 4 11 15 16 18 19 19 20 19 18 21 24 26 24 25 28 32 31 29 27 18 13 10 9 10 8 8 9 9 2
8 5 7 3 5 4 8 6 9 2 2 4 6 6 4 5 11 15 18 18 20 21 20 18 19 22 24 28 25 25 28 30 27 27 21 20 15 14 9 8 9 6 2 2
5 4 9 12 8 4 2 2 5 4 3 2 1 4 4 1 8 14 17 19 17 18 21 20 20 25 27 24 24 25 28 29 27 27 28 21 19 15 11 8 7 4 5 3
6 1 2 3 4 2 9 2 3 2 2 4 3 4 5 3 4 7 15 18 19 18 20 20 26 26 25 24 24 22 24 32 29 29 28 28 22 17 14 11 9 6 5 5
4 10 4 4 7 3 5 3 3 2 1 4 2 4 10 7 7 5 10 12 18 18 18 19 19 20 22 22 24 23 22 25 27 28 27 28 26 18 17 14 9 8 8 8
8 7 10 9 14 7 8 5 4 4 3 5 1 5 6 2 1 8 7 7 10 17 18 18 18 22 23 24 24 24 23 24 24 27 30 29 26 18 17 15 14 11 11 10
5 5 2 5 3 8 6 6 2 2 2 3 3 6 10 4 8 11 8 7 8 12 16 17 16 21 23 25 25 26 25 24 25 25 25 27 26 24 21 17 14 13 13 12
5 4 0 2 4 5 4 10 4 1 3 7 4 5 7 6 3 4 6 8 9 11 13 14 15 21 24 26 26 25 25 25 28 24 23 25 25 25 21 20 17 17 16 14
7 5 3 2 5 8 4 4 2 2 2 4 4 4 4 4 5 9 9 8 9 11 12 12 13 18 21 22 24 26 25 24 24 25 22 23 22 20 22 22 18 19 17 16
7 3 9 13 1 1 0 3 6 4 6 2 3 7 2 2 4 7 10 8 8 8 9 10 12 16 17 22 24 26 26 26 28 28 23 20 17 20 22 20 19 20 19 18
8 5 4 4 3 3 5 5 3 4 2 5 4 5 5 7 8 7 6 8 9 11 10 9 10 13 18 22 23 24 26 27 24 24 21 18 18 21 22 22 21 20 19 16
7 3 4 7 1 1 6 7 6 3 4 6 5 7 13 13 13 11 8 7 7 9 9 11 11 12 17 20 21 21 21 21 21 21 21 21 23 24 25 23 23 22 20 17
2 1 2 2 4 4 5 7 8 6 2 4 2 5 9 11 15 13 14 7 6 9 10 10 10 10 14 16 17 16 17 20 22 22 23 24 22 23 23 24 22 20 21 19
1 2 2 2 4 2 5 5 7 4 2 4 5 10 4 13 10 10 10 10 8 8 9 10 10 11 10 15 20 19 20 21 22 23 22 19 22 24 25 24 20 18 19 19
2 2 1 2 3 5 4 6 6 4 3 3 4 4 13 13 10 6 10 9 9 11 10 9 10 12 13 14 14 19 18 16 17 18 17 19 21 22 24 25 19 20 20 19
1 1 2 3 4 5 3 1 1 5 5 9 6 8 9 11 10 9 6 8 9 10 11 11 7 10 15 14 14 13 15 19 21 20 20 23 29 29 28 25 22 21 24 24
2 2 2 4 4 3 3 6 6 8 6 14 8 5 5 6 5 7 10 11 11 12 12 8 7 5 11 15 16 17 17 18 19 21 27 32 35 36 37 34 29 24 24 22
5 2 3 3 9 10 3 7 5 3 6 12 9 3 4 4 4 5 13 16 15 15 12 5 1 5 11 14 16 19 20 21 21 26 31 37 40 40 32 33 34 32 28 23
1 1 4 4 4 4 2 4 7 6 4 4 1 2 4 3 4 10 15 17 17 13 14 10 8 2 3 9 12 11 12 12 16 19 23 35 2 13 12 19 22 31 28 24
4 4 3 1 3 5 4 7 3 3 6 5 5 6 7 9 11 12 14 15 15 12 10 9 8 8 6 7 11 14 16 29 29 26 15 14 12 13 12 22 23 28 27 26
3 2 1 4 2 1 2 4 6 5 6 3 5 6 7 8 10 12 13 14 11 7 6 7 8 9 7 10 14 20 26 33 24 10 14 23 28 24 22 24 25 29 26 25
3 2 2 2 2 5 5 7 9 9 7 8 9 11 8 7 9 11 12 13 8 4 4 5 8 10 4 9 16 23 27 29 23 20 29 26 30 30 29 27 32 30 23 19
2 4 2 4 6 6 4 5 5 10 12 11 8 8 10 7 6 4 7 9 6 4 5 6 11 11 6 9 14 16 20 21 18 17 14 19 25 26 25 26 29 21 20 20
5 4 3 4 2 5 10 3 7 12 13 11 11 8 7 9 7 5 6 7 5 2 3 3 2 11 12 14 13 12 9 7 10 18 20 24 27 25 29 29 19 18 18 20
Wind_Direction
183 213 223 235 213 295 280 281 293 300 151 188 240 237 189 195 202 201 206 197 203 211 217 216 222 219 216 216 214 212 214 221 218 214 219 235 240 246 253 261 273 276 281 285
203 233 200 146 157 261 257 291 313 324 19 258 290 277 226 197 209 205 198 205 210 212 217 224 222 216 216 217 218 218 221 220 223 219 222 223 229 245 252 263 275 277 284 285
223 240 160 209 185 271 283 293 320 312 29 98 320 280 194 217 225 218 217 209 209 213 216 218 220 216 219 221 218 221 226 226 224 221 221 228 237 249 258 270 276 272 278 276
246 198 205 196 258 228 290 336 310 336 271 327 356 305 277 226 219 222 215 213 213 213 214 217 223 220 217 221 221 222 225 224 225 223 215 216 220 229 243 252 260 253 216 170
209 198 197 221 246 193 344 34 68 84 98 281 132 274 271 282 245 222 213 215 217 217 216 214 213 219 218 218 217 220 223 224 219 220 221 219 224 231 233 245 261 232 180 158
248 316 240 198 171 238 170 124 68 83 353 291 67 284 299 221 238 217 215 217 215 211 215 216 217 218 220 217 218 214 216 224 220 221 224 226 221 220 223 227 248 190 174 160
249 244 220 183 233 129 183 197 294 261 193 271 115 244 266 259 250 218 186 214 212 208 204 211 214 212 215 209 212 211 212 214 218 218 221 226 226 228 228 221 218 194 181 177
212 234 196 184 215 216 197 229 233 268 264 310 316 248 311 252 284 228 235 239 206 206 206 208 208 211 212 209 208 207 208 211 213 217 223 226 229 222 225 218 219 195 188 181
180 248 222 209 155 197 158 206 349 217 118 267 271 272 281 252 251 243 238 205 192 197 200 203 205 208 210 211 208 206 207 215 217 217 214 221 226 223 218 213 210 191 184 179
198 265 344 88 169 69 232 139 177 193 260 272 237 275 272 298 223 206 222 211 192 183 193 200 206 209 211 213 214 211 214 214 220 213 212 218 220 220 211 206 197 188 180 174
173 229 190 236 199 180 153 184 75 150 252 279 295 273 224 283 247 209 216 206 202 204 205 203 206 210 212 212 211 213 213 211 210 213 209 211 213 203 204 201 193 185 176 177
194 203 240 248 161 346 213 220 200 222 188 236 307 274 168 43 355 314 283 259 227 222 231 228 218 208 206 211 211 209 207 207 212 215 209 207 204 195 194 186 182 181 178 177
173 211 226 219 170 146 208 183 177 111 139 187 237 277 112 76 54 21 322 306 268 272 261 238 219 211 213 209 210 208 205 206 202 202 199 196 193 191 186 182 178 177 173 168
151 157 233 248 256 140 169 171 176 204 199 158 234 295 299 349 359 355 327 300 280 247 242 262 248 234 215 203 196 205 205 201 198 196 197 194 191 188 182 177 175 171 169 167
241 213 216 298 256 192 142 163 173 208 163 235 55 262 327 343 332 322 307 275 247 226 233 237 255 260 210 200 199 202 206 197 196 191 193 196 187 180 172 171 169 172 170 170
181 151 161 55 9 290 138 129 141 153 160 263 294 285 60 331 318 318 320 305 281 197 216 224 225 232 241 208 197 193 198 200 191 191 195 185 174 169 163 161 166 175 169 168
324 134 140 150 3 328 189 189 178 148 197 190 252 305 332 332 334 345 335 334 308 289 278 221 218 214 208 218 220 196 189 183 186 189 181 173 162 148 144 158 169 180 170 169
208 87 102 122 133 227 60 359 288 258 207 210 246 273 307 306 296 288 320 316 319 313 296 282 240 204 193 193 199 189 175 176 180 175 161 155 146 140 148 159 177 192 179 173
298 169 168 214 188 332 236 214 206 204 228 216 217 238 286 291 273 67 20 359 343 319 302 284 278 235 183 178 179 173 173 175 171 159 153 153 154 158 160 167 188 195 182 175
89 88 257 167 226 227 216 163 153 164 265 197 208 287 349 299 186 46 349 348 349 354 348 340 36 182 175 172 177 173 169 167 169 167 165 166 174 167 177 178 178 188 181 174
182 40 244 209 260 286 360 114 155 203 347 11 209 355 18 49 360 320 334 341 342 356 13 33 60 64 190 167 159 164 153 146 124 119 81 6 99 161 164 171 164 172 175 171
228 200 206 171 229 244 119 121 228 24 351 10 355 347 342 334 326 322 329 332 327 337 20 29 47 61 89 145 150 135 127 120 133 133 68 350 295 277 173 159 161 168 172 174
236 272 324 228 25 342 288 290 294 298 282 289 297 299 314 321 317 318 328 341 311 328 360 54 69 77 101 134 144 130 144 144 158 179 173 178 188 206 190 170 162 168 173 175
209 187 243 281 147 232 273 295 286 315 298 281 264 272 284 295 306 326 347 354 344 332 87 75 94 94 74 146 158 159 164 174 165 158 159 170 154 166 168 168 172 175 176 182
53 161 235 256 273 285 189 230 295 311 320 315 313 261 252 256 280 296 334 345 343 338 275 160 134 119 144 180 171 179 181 166 146 173 169 143 149 157 153 164 169 178 188 189
189 175 223 283 301 281 288 285 311 312 319 318 329 308 254 237 243 277 294 314 303 316 343 334 187 138 175 186 175 183 192 201 151 139 146 149 153 158 160 164 165 181 188 194